PSRDR SBPS-SBMK

Flight info

Callsign PSRDR
Flight time N/A
Altitude 38000
Route MUKOS DCT UBNED DCT MK001
Aircraft CL60/M-SBDE1E2E3FGHIJ4J5J7M3RWXYZ/LB1V1D1

Departure

Time N/A
Airport Porto Seguro International Airport (SBPS)

Arrival

Time 2026-05-04 01:27
Airport Mário Ribeiro Airport (SBMK)
Time Latitude Longitude Altitude Speed Heading
2026-05-04 01:22 -16.66142 -43.75926 5518 ft 225 kts 300°
2026-05-04 01:22 -16.65665 -43.77513 5433 ft 234 kts 282°
2026-05-04 01:22 -16.65371 -43.79184 5404 ft 235 kts 281°
2026-05-04 01:22 -16.65080 -43.80847 5277 ft 229 kts 280°
2026-05-04 01:23 -16.64829 -43.82491 5222 ft 230 kts 279°
2026-05-04 01:23 -16.64588 -43.84141 5036 ft 228 kts 279°
2026-05-04 01:23 -16.64350 -43.85736 4845 ft 222 kts 279°
2026-05-04 01:23 -16.64161 -43.87294 4586 ft 207 kts 275°
2026-05-04 01:24 -16.64321 -43.88673 4487 ft 188 kts 246°
2026-05-04 01:24 -16.65049 -43.89752 4362 ft 179 kts 218°
2026-05-04 01:24 -16.66118 -43.90330 4145 ft 162 kts 184°
2026-05-04 01:24 -16.67151 -43.90195 3979 ft 143 kts 153°
2026-05-04 01:25 -16.67943 -43.89620 3616 ft 136 kts 129°
2026-05-04 01:25 -16.68568 -43.88931 3394 ft 129 kts 130°
2026-05-04 01:25 -16.69163 -43.88244 3199 ft 125 kts 126°
2026-05-04 01:25 -16.69668 -43.87515 2966 ft 126 kts 118°
2026-05-04 01:26 -16.70046 -43.86678 2761 ft 126 kts 111°
2026-05-04 01:26 -16.70227 -43.85770 2655 ft 127 kts 98°
2026-05-04 01:26 -16.70322 -43.84851 2528 ft 129 kts 97°
2026-05-04 01:26 -16.70428 -43.83924 2401 ft 129 kts 99°
2026-05-04 01:27 -16.70561 -43.82994 2232 ft 128 kts 99°
2026-05-04 01:27 -16.70664 -43.82144 2185 ft 105 kts 98°
2026-05-04 01:27 -16.70732 -43.81574 2190 ft 54 kts 96°
2026-05-04 01:27 -16.70764 -43.81400 2190 ft 8 kts 112°
2026-05-04 01:28 -16.70753 -43.81397 2190 ft 5 kts 291°
2026-05-04 01:28 -16.70744 -43.81461 2190 ft 12 kts 277°
2026-05-04 01:28 -16.70730 -43.81583 2190 ft 20 kts 277°
2026-05-04 01:28 -16.70710 -43.81758 2189 ft 28 kts 277°
2026-05-04 01:29 -16.70684 -43.81978 2187 ft 23 kts 276°
2026-05-04 01:29 -16.70662 -43.82092 2185 ft 8 kts 314°
2026-05-04 01:29 -16.70593 -43.82096 2185 ft 8 kts
2026-05-04 01:29 -16.70558 -43.82127 2185 ft 6 kts 349°
2026-05-04 01:30 -16.70535 -43.82126 2184 ft 0 kts